Погода в Бугульме

Хотите узнать прогноз погоды в Бугульме? Тогда Вам сюда: Погода в Бугульме

Поиск расширенной информации на нашем сайте:

Полезная информация:

Новости сайта



02.01.2020
Опубликован Долгосрочный прогноз погоды по городам России и ближнего зарубежья на январь 2020 года.
Карты: Прогноз на январь и февраль 2020 года, Сравнение прогнозируемой аномалии приземной температуры воздуха на январь 2020 года по разным моделям.




Погода в Бугульме - сегодня

Время (UTC), дата Ветер
(°,м/с) 
Видим.   Явления Облачность Т
(°С)
Тd
(°С)
f(%) Тe
(°С)
Pmin
(гПа)
dP
(гПа)
Po
(мм)
O2
(г/м3)
Тmin Tmax R s Состояние
почвы
00 16.01.22 260 (З) 10 км  слаб. снег  8/6 240 м средняя 
[Frnb|Ac trans]
-16.6 -18.6 85 -23  986.8  2.4  711  306           
03 16.01.22 280 (З) 10 км  слаб. снег  10/8 210 м средняя 
[Frnb|Ac und]
-15.6 -17.5 85 -23  988.3  1.6  712  306  -16.7    32  равномерный
сухой снег
100% 
06 16.01.22 270 (З) 4000 м  слаб. ливневой снег  10/8 120 м кучево-дожд., средняя, верхняя 
[Cb calv|Ac trans|Ci fib]
-15.4 -17.2 86 -20  991.3  2.8  714  306           
09 16.01.22 290 (З) 2000 м  ливневой снег  10/8 150 м кучево-дожд., средняя 
[Cb calv|Ac trans]
-13 -14.8 86 -17  992.5  1.5  715  304           
12 16.01.22 280 (З) 1000 м  ливневой снег  10/8 150 м кучево-дожд., средняя, верхняя 
[Cb calv|Ac trans|Ci fib]
-11.1 -12.7 88 -15  994.4  2.2  717  302           
15 16.01.22 280 (З) 1000 м  ливневой снег  10/8 180 м кучево-дожд., средняя, верхняя 
[Cb calv|Ac trans|Ci fib]
-9.5 -10.8 90 -13  997.2  2.9  719  301    -9.5     
18 16.01.22 280 (З) 10 км  слаб. ливневой снег  10/8 270 м кучево-дожд., средняя 
[Cb calv|Ac und]
-8.8 -10.2 90 -13  999.1  1.9  721  301           
21 16.01.22 280 (З) 10 км  слаб. ливневой снег  10/8 420 м кучево-дожд., средняя 
[Cb calv|Ac und]
-8.5 -10.3 87 -13  1001.4  2.3  722  301           
00 17.01.22 250 (З) 10 км  в посл. час ливневой снег  10/6 480 м кучево-дожд., средняя 
[Cb calv|Ac und]
-8.7 -10.5 87 -12  1003.4  1.8  724  302           
03 17.01.22 220 (ЮЗ) 10 км  в посл. час ливневой снег  10/6 1000 м кучево-дожд., средняя 
[Cb calv|Ac und]
-9.3 -10.9 88 -13  1004.6  1.2  725  303  -9.5    0.3  34  равномерный
сухой снег
100% 
06 17.01.22 230 (ЮЗ) 20000 м  {ливн. осадки}  10/8 240 м кучево-дожд., средняя 
[Cb calv|Ac und]
-8.7 -10.4 87 -14  1005  0.4  725  303           
09 17.01.22 220 (ЮЗ) 7-10{11}  4000 м  слаб. ливневой снег  10/8 360 м кучево-дожд., средняя 
[Cb calv|Ac und]
-8.6 -10.6 85 -14  1005.2  0.2  725  303           
12 17.01.22 220 (ЮЗ) 7-11{11}  20000 м  слаб. ливневой снег  10/8 360 м кучево-дожд., средняя 
[Cb calv|Ac und]
-7.9 -10 85 -13  1005.2  725  302           
15 17.01.22 210 (ЮЗ) 9-15{15}  10 км  позёмок{ливн. осадки}  10/6 400 м кучево-дожд., средняя 
[Cb calv|Ac und]
-8.1 -10.2 85 -15  1005.6  0.3  725  302    -7.8  0.2     
18 17.01.22 200 (Ю) 6-10{15}  10 км  позёмок{ливн. осадки}  8/4 300 м средняя, верхняя 
[Sc|Ac trans|Ci fib]
-8.7 -10.8 85 -14  1006.4  0.6  726  303           
21 17.01.22 200 (Ю) 9-13{14}  10 км  позёмок  8/6 900 м средняя 
[Sc|Ac trans]
-7.3 -10.2 80 -14  1006  -0.1  726  301           
00 18.01.22 200 (Ю) 11-16{16}  4000 м  метель{снег}  8/6 330 м средняя 
[Sc|Ac trans]
-7.5 -9.1 88 -14  1006.3  0.3  726  302           
03 18.01.22 190 (Ю) 9-13{17}  4000 м  слаб. снег  10/8 240 м средняя, верхняя 
[Sc|Ac trans|Ci fib]
-7.3 -9.1 87 -14  1007.3  0.9  727  302  -8.7    0.2  35  равномерный
сухой снег
100% 
06 18.01.22 190 (Ю) 11-16{17}  2000 м  снег  10/8 300 м средняя 
[Sc diur, vesp|Ac und]
-6.4 -8.3 86 -13  1008.2  727  301           
09 18.01.22 190 (Ю) 11-16{17}  1000 м  снег  10/10 270 м 
[Frnb|Ac As]
-5.3 -7.2 86 -12  1008.9  0.9  728  300           
12 18.01.22 190 (Ю) 11-16{17}  1000 м  снег  10/10 270 м 
[Frnb|Ns]
-4.7 -6.5 87 -11  1010  1.1  729  299           
15 18.01.22 190 (Ю) 11-16{17}  2000 м  снег  10/10 300 м 
[Frnb]
-4.5 -6 89 -11  1011.1  1.1  730  300    -4.2  0.5     
18 18.01.22 210 (ЮЗ) 8-15{16}  2000 м  снег  10/10 240 м 
[Frnb|Ns]
-3.6 -5 90 -9  1012.4  1.4  731  299           
21 18.01.22 200 (Ю) 7-13{15}  2000 м  снег  10/10 240 м 
[Frnb|Ns]
-3.5 -4.6 92 -8  1013.9  1.4  732  299           
00 19.01.22 200 (Ю) 8-13{13}  2000 м  снег  10/10 210 м 
[Frnb|Ns]
-4.2 -5.2 93 -9  1014.9  0.9  732  300           
Время (UTC), дата Ветер
(°,м/с) 
Видим.   Явления Облачность Т
(°С)
Тd
(°С)
f(%) Тe
(°С)
Pmin
(гПа)
dP
(гПа)
Po
(мм)
O2
(г/м3)
Тmin Tmax R s Состояние
почвы

Для получения пояснительной информации подведите курсор к названию столбца.

ПОГОДА в Бугульме - архив

Всё, что Вы хотите узнать о погоде в Бугульме - удобно и подробно!

Выберите нужную дату (начиная с 1 января 2019* года) и нажмите кнопку "Найти".
Будут отображены архивные сводки погоды по пункту Бугульма, начиная с указанной даты.


Отображать данные в формате CSV (для использования в таблицах Excel)


Внимание! Наш архив погоды предназначен исключительно для личного некоммерческого использования в познавательных целях. Если Вам необходимы официальные справки о состоянии погоды (для производственных, юридических, коммерческих и т.п. целей), обращайтесь в органы Росгидромета.

*Примечание: данная дата относится к архиву по метеостанциям СССР (Россия, СНГ, Балтия).
Архив по метеостанциям Зарубежной Европы и Азии (кроме Китая) хранится 10 дней, по другим регионам земного шара (Китай, Африка, Америка, Австралия, Океания) - 1 день.

Бугульма - район местоположения метеостанции


Название, широта, долгота, высота метеостанции:
Бугульма 54.6°ш. 52.8°д. 304 м над ур. моря [Российская Федерация]

Дополнительная информация

В oтличие oт бoльшинства пoгoдных сайтoв мы публикуем пoдрoбную метеoинфoрмацию в детальнoм прoфессиoнальнoм фoрмате.

Характеристики температуры и влажнoсти вoздуха измеряются на высoте 2 м в тени вдали oт зданий и деревьев.
Скoрoсть ветра измеряется на высoте 10 м (на урoвне рoста челoвека скoрoсть ветра ниже в 1.5-2 раза). Если метеoстанция нахoдится в гoрoде или в лесу, тo скoрoсть ветра занижена на 2-4 м/с пo сравнению с oткрытым местoм. Скoрoсть ветра над акватoриями крупных рек и oзёр, а также на вершинах хoлмoв на 2-5 м/с выше, чем в oбычных услoвиях.
Атмoсфернoе давление в разных тoчках местнoсти мoжет значительнo oтличаться oт давления на метеoстанции, в зависимoсти oт услoвий рельефа (при пoдъёме на 10 м давление пoнижается примернo на 1 мм рт.ст.).